Regional Weather Roundup
Issued by NWS

Home | Current Version | Previous Version | Graphics & Text | Print | Product List | Glossary Off
Versions: 1 2 3 4 5 6 7 8 9 10 11 12 13 14 15 16 17 18 19 20 21 22 23 24 25 26 27 28 29 30 31 32 33 34 35 36 37 38 39 40 41 42 43 44 45 46 47 48 49 50

000
ASUS43 KMKX 142020
RWRWI

WISCONSIN REGIONAL WEATHER ROUNDUP
NATIONAL WEATHER SERVICE MILWAUKEE/SULLIVAN WI
200 PM CST SUN FEB 14 2016

NOTE: "FAIR" INDICATES FEW OR NO CLOUDS BELOW 12,000 FEET WITH NO
SIGNIFICANT WEATHER AND/OR OBSTRUCTIONS TO VISIBILITY.

WIZ001-002-006>008-014>016-023>028-142100-
NORTHWEST WISCONSIN

CITY           SKY/WX    TMP DP  RH WIND       PRES   REMARKS
SUPERIOR ARPT  CLOUDY    16   6  65 S10       29.98F WCI   3
ASHLAND        CLOUDY    20   4  50 S13G21    29.99F WCI   7
HAYWARD        CLOUDY    15   5  64 S10       29.97F WCI   2
SIREN          CLOUDY    18   6  59 S10       29.95F WCI   7
CUMBERLAND     FLURRIES  16   5  62 SE14      29.96F WCI   1
RICE LAKE      FLURRIES  17   8  66 SE13      29.99F WCI   4
CHETEK         LGT SNOW  16   8  70 SE12      29.99F WCI   3
LADYSMITH      FLURRIES  17   6  60 S12G18    30.01F WCI   5
EAU CLAIRE     LGT SNOW  17   8  67 SE14      30.00F WCI   3
MENOMONIE      LGT SNOW  22  10  61 SE10      30.00F WCI  11
NEW RICHMOND   FLURRIES  19  10  66 S14G21    29.95F WCI   6
OSCEOLA        FLURRIES  19  11  70 SE16      29.98F WCI   4
$$

WIZ003>005-009-010-017-018-142100-
NORTH CENTRAL WISCONSIN

CITY           SKY/WX    TMP DP  RH WIND       PRES   REMARKS
MANITOWISH WTR CLOUDY    17  -8  32 S12G18    29.97F WCI   4
ARBOR VITAE    CLOUDY    21  -4  33 SE9G18    29.98F WCI  11
WOODRUFF       CLOUDY    21  -4  33 SE9G18    29.98F WCI  11
RHINELANDER    MOSUNNY   18  -1  43 S14G23    30.00F WCI   4
EAGLE RIVER    CLOUDY    20  -1  39 SE13G20   29.99F WCI   7
LAND O LAKES   CLOUDY    21  -4  32 S9G20     29.99F WCI  11
PHILLIPS       CLOUDY    17   1  49 SE14      29.98F WCI   2
TOMAHAWK       CLOUDY    19  -1  40 S8G16     30.01F WCI   9
MEDFORD        CLOUDY    16   1  50 SE13      30.00F WCI   2
MERRILL        CLOUDY    19  -4  35 S14       30.03F WCI   6
$$

WIZ029-030-035-036-043>047-142100-
CENTRAL WISCONSIN

CITY           SKY/WX    TMP DP  RH WIND       PRES   REMARKS
WAUSAU         CLOUDY    19  -3  38 SE14      30.03F WCI   6
MOSINEE        PTSUNNY   18   0  45 SE16      30.05F WCI   3
MARSHFIELD     LGT SNOW  15   8  73 S13       30.02F WCI   1
STEVENS POINT  CLOUDY    16   1  53 SE12      30.08F WCI   3
WAUPACA        CLOUDY    23   8  54 SE13      30.12F WCI  11
WAUTOMA        LGT SNOW  16  10  79 SE10      30.11F VSB 3/4 WCI   3
WISC RAPIDS    LGT SNOW  16   7  67 SE12      30.08F WCI   3
CAMP DOUGLAS   LGT SNOW  16  14  93 SE13      30.04F FOG     WCI   2
$$

WIZ011>013-019>022-031-037>040-048>050-142100-
NORTHEAST WISCONSIN

CITY           SKY/WX    TMP DP  RH WIND       PRES   REMARKS
ANTIGO         CLOUDY    19   5  54 S21       30.04F WCI   2
SHAWANO        CLOUDY    25  11  54 S14       30.14F WCI  14
OCONTO         CLOUDY    18  11  75 SE6       30.17F WCI   9
STURGEON BAY   CLOUDY    19  12  73 S20G30    30.19F WCI   4
GREEN BAY      CLOUDY    20  14  77 SE18G24   30.16F WCI   5
MANITOWOC      FLURRIES  21  14  74 SE16      30.19F WCI   7
APPLETON       FLURRIES  19  10  68 SE18      30.11F WCI   4
CLINTONVILLE   CLOUDY    23  10  58 S15G22    30.12F WCI  10
OSHKOSH        LGT SNOW  20  12  71 SE18G25   30.12F WCI   5
$$

WIZ032>034-041-042-053>061-142100-
SOUTHWEST WISCONSIN

CITY           SKY/WX    TMP DP  RH WIND       PRES   REMARKS
LA CROSSE      LGT SNOW  19  11  70 SE14      30.03F WCI   6
SPARTA         CLOUDY    19  10  68 SE14      30.05F WCI   6
VIROQUA        CLOUDY    17  11  74 SE16      29.99F WCI   2
BOSCOBEL       LGT SNOW  18  10  71 VRB6G17   30.05F WCI  10
PRAIRIE DU CHI MIX PCPN  18  11  74 SE10      30.02F WCI   6
PLATTEVILLE    CLOUDY    18  13  82 SE17      30.01F WCI   2
$$

WIZ056-057-062-063-064-067-068-142100-
SOUTH CENTRAL WISCONSIN

CITY           SKY/WX    TMP DP  RH WIND       PRES   REMARKS
REEDSBURG      LGT SNOW  16  11  81 SE6       30.06F WCI   7
BARABOO/DELLS  LGT SNOW  16  10  79 SE10      30.06F WCI   3
LONE ROCK      LGT SNOW  17  10  74 SE12      30.06F WCI   4
MINERAL POINT  LGT SNOW  19  14  79 SE16G23   30.01F WCI   5
MADISON        LGT SNOW  15  10  80 SE16      30.09F VSB 1   WCI  -1
MIDDLETON      CLOUDY    17  11  77 SE16      30.08F WCI   2
WATERTOWN      LGT SNOW  17  14  90 SE12G18   30.11F VSB 1   WCI   4
MONROE         LGT SNOW  18  12  79 SE14G24   30.05F WCI   4
JANESVILLE     LGT SNOW  18  12  79 SE12      30.10F VSB 3/4 WCI   5
$$

WIZ051-052-058>065-066-070>072-142100-
SOUTHEAST WISCONSIN

CITY           SKY/WX    TMP DP  RH WIND       PRES   REMARKS
MILWAUKEE      LGT SNOW  18  14  84 S13       30.16F VSB 1   WCI   5
WAUKESHA       LGT SNOW  16  10  79 E12G17    30.13F VSB 3/4 WCI   3
MILWAUKEE/TIMM LGT SNOW  19  10  68 SE18      30.17F WCI   4
RACINE         SNOW      19  13  77 SE12G21   30.16F VSB 1/2 WCI   7
BURLINGTON     LGT SNOW  14  10  83 SE6G16    30.14F VSB 3/4 WCI   5
KENOSHA        LGT SNOW  17  12  80 SE15      30.14F VSB 3/4 WCI   2
FOND DU LAC    LGT SNOW  19  12  74 SE13      30.12F WCI   6
SHEBOYGAN      CLOUDY    20  12  71 SE13G23   30.17F WCI   7
WEST BEND      LGT SNOW  19  14  79 SE12      30.14F WCI   7
JUNEAU         LGT SNOW  16  12  82 SE18      30.12F VSB 1   WCI   0
$$

LSZ147-162-142100-
LAKE SUPERIOR

STATION/POSITION TIME  TEMP    WIND        PRES    WAVE
                       AIR SEA DIR/SP/G            HT/PER
                 (UTC) (F)     (DEG/KT/KT) (MB)    (FT/S)
DEVILS ISLAND    2000   17     190/  5/  7 1017.6F
SAXON HARBOR     1920                      1016.6F
$$

LMZ867-665-643>646-142100-
LAKE MICHIGAN

STATION/POSITION TIME  TEMP    WIND        PRES    WAVE
                       AIR SEA DIR/SP/G            HT/PER
                 (UTC) (F)     (DEG/KT/KT) (MB)    (FT/S)
CHAMBERS ISLAND  1900   16      CALM  /  2 1023.4F
SISTER BAY       1819   16     350/  7/  7   N/A
ALGOMA LAKESHORE 1811          200/ 27/ 34   N/A
KEWAUNEE LAKESHO 1900   23     170/ 22/ 28 1021.9F
SHEBOYGAN LAKESH 2000   21     140/ 23/ 27 1023.3F
PORT WASHINGTON  2001   23     150/ 19/ 23 1022.4F
MILWAUKEE LAKESH 1910   20     170/ 19/ 21   N/A
KENOSHA   LAKESH 2000   19     160/ 21/ 24 1021.3F
$$

TC  - TEMPERATURE IN CELSIUS
VSB - VISIBILITY IN STATUTE MILES
WCI - WIND CHILL INDEX
HX  - HEAT INDEX




USA.gov is the U.S. government's official web portal to all federal, state and local government web resources and services.